Location: Tierra del Sol
(32.6128°N, 116.3319°W)
Time: 13:11:41
(UTC-07:00)

Daily predictions for brighter satellites

Satellite Brightness Start Highest point End
(mag) Time Altitude Azimuth Time Altitude Azimuth Time Altitude Azimuth
Cosmos 1626 Rocket 3.6 20:16:23 10° S 20:20:50 76° E 20:25:17 10° N
H-2A R/B 4.1 20:23:12 10° E 20:25:25 13° ENE 20:27:39 10° NE
Cosmos 1315 Rocket 4.4 20:23:07 10° SE 20:25:52 18° E 20:28:38 10° NE
Cosmos 1607 4.4 20:21:46 10° NNW 20:27:55 48° ENE 20:33:53 10° SE
Resurs 1-3 3.9 20:26:55 10° SSE 20:31:08 49° ENE 20:35:22 10° N
Cosmos 1953 2.4 20:27:44 10° N 20:31:42 61° E 20:35:39 10° SSE
USA 186 1.8 20:30:45 10° S 20:34:04 87° W 20:37:13 10° NNW
Hubble Space Telescope 2.2 20:30:56 10° WSW 20:34:22 25° SSW 20:37:47 10° SE
Cosmos 1602 Rocket 3.7 20:30:56 10° S 20:35:24 83° W 20:39:54 10° N
Cosmos 1812 Rocket 3.7 20:38:33 10° N 20:42:49 53° E 20:47:05 10° SSE
Thor Agena Rocket 3.7 20:38:01 10° N 20:43:07 79° WNW 20:48:09 10° SSW
SJ-6B 4.2 20:39:55 10° SSW 20:43:33 39° W 20:47:17 10° NNW
ERS-2 2.6 20:40:07 10° SSE 20:43:37 44° ENE 20:47:07 10° N
Centaur D-1A AC-31 2.7 20:41:52 10° WSW 20:45:08 20° SSW 20:47:33 10° SSE
Cosmos 1943 3.2 20:45:42 10° NNW 20:51:23 88° ENE 20:57:00 10° SSE
Cosmos 1758 Rocket 4.1 20:48:03 10° SSE 20:52:13 39° E 20:56:21 10° NNE
Cosmos 1400 Rocket 3.0 20:49:13 10° S 20:53:17 79° W 20:57:17 10° N
OAO 3 Rocket 3.5 20:48:21 10° W 20:53:19 73° N 20:58:15 10° ENE
Cosmos 1238 Rocket 3.6 20:52:45 17° ESE 20:53:40 20° E 20:55:54 10° NE
Resurs 01 Rocket 1.6 20:49:56 10° SSE 20:54:20 89° ENE 20:58:47 10° NNW
Lacrosse 5 2.1 20:49:32 10° SW 20:54:35 76° NW 20:59:39 10° NE
SL-8 R/B 3.6 20:50:01 10° SW 20:54:49 82° SE 20:59:40 10° NE
CZ-3 Stage 3 3.1 20:52:53 10° WSW 20:55:52 67° S 21:07:34 10° E
ARGOS 4.0 20:55:27 15° SE 20:59:20 34° ENE 21:04:12 10° N
ATLAS 2AS CENTAUR R/B 3.0 20:53:29 10° SSW 21:00:56 62° ESE 21:08:52 10° NE
Aureole 1 Rocket 2.5 21:02:24 10° SSW 21:05:23 72° WNW 21:08:50 10° NNE
Cosmos 1346 Rocket 4.4 21:04:12 10° NNE 21:07:10 20° ENE 21:08:19 18° E
Iridium 4 Rocket 3.7 21:01:56 10° SSE 21:07:36 63° E 21:12:56 10° N
Cosmos 1470 3.8 21:04:11 10° NNW 21:07:54 45° W 21:11:39 10° SSW
ERS-1 Rocket 4.3 21:06:47 16° ESE 21:09:13 23° ENE 21:13:08 10° NNE
NOAA 11 4.3 21:04:46 10° S 21:10:11 79° WSW 21:15:37 10° NNW
Cosmos 1844 Rocket 2.8 21:05:24 10° S 21:10:52 53° ESE 21:16:22 10° NNE
Cosmos 1844 4.2 21:05:47 10° S 21:10:59 39° ESE 21:16:16 10° NE
Cosmos 1825 Rocket 3.6 21:12:58 10° S 21:17:25 83° W 21:21:55 10° N
Cosmos 1048 Rocket 4.3 21:14:53 10° SSW 21:20:08 69° WNW 21:25:29 10° NNE
Meteor 1-24 Rocket 3.9 21:14:35 10° S 21:20:31 66° E 21:26:30 10° NNE
BREEZE-M R/B 2.2 21:18:43 10° WNW 21:21:36 51° SW 21:22:07 41° S
Aurora 2 Rocket 4.2 21:20:09 10° SW 21:26:06 42° SSE 21:31:37 20° ESE
USA 215 3.3 21:27:47 23° SE 21:32:09 78° SW 21:38:44 10° NW
Cosmos 1437 3.1 21:30:23 10° N 21:33:25 42° E 21:33:28 42° E
Meteor 2-5 Rocket 4.4 21:28:54 10° SSW 21:34:44 59° W 21:40:35 10° N
Cosmos 1908 4.2 21:34:25 10° NNE 21:37:52 30° E 21:38:00 30° E
NOSS 3-4 (A) 4.1 21:37:55 29° SE 21:38:44 30° ESE 21:44:02 10° NE
NOSS 3-4 (C) 4.1 21:38:08 29° ESE 21:38:49 29° ESE 21:44:05 10° NE
Cosmos 2285 Rocket 4.4 21:34:45 10° SSW 21:41:01 66° WNW 21:47:19 10° N
Cosmos 1452 Rocket 4.4 21:41:34 10° NNW 21:46:34 44° WSW 21:50:06 18° SSW
Cosmos 220 Rocket 4.5 21:49:51 40° E 21:49:51 40° E 21:53:29 10° NNE
Cosmos 1340 4.2 21:50:20 10° NNE 21:52:54 24° ENE 21:52:54 24° ENE
Terra 3.4 21:53:44 19° ENE 21:54:07 19° ENE 21:57:29 10° NNE
Meteor 2-1 Rocket 4.5 21:51:08 10° N 21:56:58 57° E 21:58:47 41° SE
S3M 4.1 21:54:49 34° SSE 21:57:28 60° E 22:03:44 10° NNE
CZ-2C R/B 4.3 21:56:12 10° NE 21:58:36 17° ENE 21:58:36 17° ENE
Cosmos 1674 2.8 22:00:30 51° SW 22:01:19 69° W 22:05:08 10° N
SPOT 1/Viking Rocket 3.8 22:02:58 44° ESE 22:03:57 50° ENE 22:08:54 10° N
H-2A R/B 2.3 22:01:51 34° S 22:04:07 68° WSW 22:09:29 10° NNW
Cosmos 1110 Rocket 4.1 22:00:34 10° N 22:05:40 59° ENE 22:06:36 51° ESE
Cosmos-2242 3.3 22:03:27 10° NNW 22:07:49 65° W 22:08:52 47° SSW
MetOp-B 4.5 22:07:03 33° SSW 22:09:20 61° WSW 22:14:38 10° NNW
ATLAS 3B CENTAUR R/B 3.9 21:51:07 10° SW 22:09:34 48° S 22:13:13 34° ESE
Cosmos 2084 3.2 22:08:44 10° NNW 22:12:18 70° NNE 22:12:18 70° NNE
OAO 3 Copernicus 4.2 22:09:36 10° WNW 22:14:39 71° SSW 22:15:04 67° SSE
Cosmos 1842 Rocket 4.0 22:14:20 10° N 22:18:07 49° ENE 22:18:07 49° ENE
Cosmos 1331 Rocket 3.9 22:14:46 10° NNW 22:19:59 73° ENE 22:20:36 65° ESE
Cosmos 1553 Rocket 4.0 22:18:15 31° SSW 22:21:18 72° W 22:27:22 10° N
Helios 1A 3.0 22:22:36 74° NNE 22:22:36 74° NNE 22:26:32 10° N
Cosmos 1726 2.7 22:21:36 10° N 22:24:37 56° NNW 22:24:37 56° NNW
Meteor 1-21 Rocket 4.2 22:25:36 55° S 22:27:00 84° E 22:32:51 10° N
SPOT 5 2.8 22:27:04 71° S 22:27:39 87° W 22:32:52 10° NNW
USA 238 DEB 3.8 22:22:29 10° NNW 22:29:40 70° ENE 22:31:39 49° ESE
USA 238 3.9 22:22:36 10° NNW 22:29:45 69° ENE 22:31:45 49° ESE
ATLAS 3B R/B 3.0 22:23:46 10° NNW 22:30:10 50° ENE 22:31:41 42° E
Cosmos 2278 Rocket 2.0 22:31:51 62° S 22:32:51 85° ESE 22:38:33 10° NNE
Meteor 2-10 4.1 22:30:51 10° N 22:36:19 83° W 22:37:01 69° SSW
Helios 1B rocket 2.8 22:32:20 10° N 22:35:57 62° NNW 22:35:57 62° NNW
SL-14 R/B 4.2 22:37:46 43° N 22:37:46 43° N 22:40:29 10° N
Cosmos 883 Rocket 4.3 22:36:17 63° SE 22:36:58 68° E 22:43:08 10° NNE
Cosmos 2315 Rocket 4.2 22:36:49 49° E 22:37:01 49° E 22:43:05 10° NNE
OAO 3 Rocket 3.3 22:32:10 10° WNW 22:37:06 71° N 22:37:20 70° NNE
NOSS 3-2 (A) 4.4 22:35:02 10° NNW 22:42:38 56° ENE 22:45:04 43° ESE
Cosmos 1302 Rocket 4.0 22:42:08 10° NNW 22:47:10 69° NE 22:47:10 69° NE
ERS-1 Rocket 4.2 22:46:46 29° WSW 22:47:45 32° W 22:52:15 10° NW
Cosmos 2251 Rocket 4.1 22:46:14 40° WSW 22:47:47 55° WNW 22:53:01 10° N
Cosmos 1386 Rocket 4.2 22:43:27 10° N 22:49:32 90° WNW 22:50:06 75° S
COSMOS 2406 3.1 22:44:29 10° NNW 22:50:14 76° WSW 22:50:32 73° SW
CZ-2C R/B 3.3 22:50:50 69° E 22:51:00 69° ENE 22:56:47 10° N
Cosmos 2221 3.5 22:52:59 10° N 22:55:56 42° N 22:55:56 42° N
NOSS 3-2 (C) 4.3 22:59:35 10° NNW 23:07:15 59° ENE 23:09:03 50° ESE
Aureole 3 Rocket 4.3 23:10:47 66° S 23:12:06 88° E 23:18:29 10° N
Cosmos 2297 4.2 23:16:15 50° NE 23:16:15 50° NE 23:20:33 10° NNE
ATLAS 5 CENTAUR R/B 2.8 23:16:49 41° N 23:16:49 41° N 23:20:17 10° NNE
Cosmos 2082 Rocket 3.1 23:20:26 10° N 23:25:12 41° NE 23:25:12 41° NE
Cosmos 1833 Rocket 3.3 23:25:10 10° N 23:29:47 48° NE 23:29:47 48° NE
Terra 3.3 23:32:37 31° WNW 23:32:37 31° WNW 23:35:53 10° NNW
ADEOS Rocket 3.8 23:33:20 10° NNE 23:37:49 41° ENE 23:37:49 41° ENE
CENTAUR R/B 3.7 23:31:37 10° NNW 23:39:28 49° NE 23:41:24 43° E
CZ-2C R/B 3.5 23:35:09 10° N 23:40:07 43° WNW 23:40:07 43° WNW
